Other Public Products
Issued by NWS Grand Forks, ND

Home | Current Version | Previous Version | Text Only | Print | Product List | Glossary Off
Versions: 1 2 3 4 5 6 7 8 9 10 11 12 13 14 15 16 17 18 19 20 21 22 23 24 25 26 27 28 29 30 31 32 33 34 35 36 37 38 39 40 41 42 43 44 45 46 47 48 49 50

000
FPUS83 KFGF 230310
OPUFGF
PRAIRIE TO PINES WEATHER ROUNDUP
NATIONAL WEATHER SERVICE EASTERN NORTH DAKOTA/GRAND FORKS ND
900 PM CST MON JAN 22 2018

 **SATELLITE DATA USED TO AUGMENT SKY COVER AT AUTOMATED STATIONS**
 *****  WEATHER ACROSS EASTERN NORTH DAKOTA  *****

CITY           SKY/WX    TMP DP  RH WIND       PRES   REMARKS
GRAND FORKS    CLOUDY    24  19  81 N6        30.07F WCI  17
GRND FORKS AFB CLOUDY    23  17  78 NE6       30.07S WCI  16
GRND FORKS NWS   N/A     23 N/A N/A N2          N/A
BUXTON           N/A     23  23  99 N8          N/A  WCI  14
DEVILS LAKE    CLOUDY    20  17  88 S5        30.05S WCI  13
FARGO          CLOUDY    25  20  81 NE15      30.03S WCI  13
WAHPETON ARPT  CLOUDY    27  21  80 N12G21    30.01S WCI  16
$$

 *****  WEATHER ACROSS CENTRAL AND WESTERN NORTH DAKOTA  *****

CITY           SKY/WX    TMP DP  RH WIND       PRES   REMARKS
JAMESTOWN      CLOUDY    21  20  96 NE6       30.03S WCI  13
BISMARCK       FOG       23  20  88 SW6       30.05S VSB 1/2 WCI  16
MINOT          CLOUDY    19  16  88 S12       29.98F FOG     WCI   7
MINOT AFB      CLOUDY    17  15  90 S10       29.97F FOG     WCI   5
GARRISON         N/A     17  15  92 S8        30.00F WCI   7
WILLISTON      FAIR      24  18  77 SE3       29.98S
DICKINSON      FAIR      24  18  77 W13       29.96S WCI  12
HETTINGER      CLOUDY    20  15  81 CALM      30.01R
$$

 *****  OTHER OBSERVATIONS NORTHEAST NORTH DAKOTA  *****

CITY           SKY/WX    TMP DP  RH WIND       PRES   REMARKS
WALHALLA       FAIR      23  23 100 SE5       30.08F WCI  17
LANGDON        CLOUDY    19  21 100 SE9       30.04F WCI   9
CAVALIER         N/A     23  18  80 CALM      30.08F
GRAFTON        CLOUDY    23  19  86 CALM      30.11R
CANDO          CLOUDY    19  19 100 S5        30.06F WCI  13
FORT TOTTEN      N/A     20  18  91 S2        29.95S
ROLLA          CLOUDY    19  19 100 S9        30.01F FOG     WCI   9
RUGBY          CLOUDY    21  21 100 S7        30.03S WCI  13
 ***** THE ABOVE OBSERVATIONS ARE NON NWS ARE NOT QUALITY
        CONTROLLED AND MAY MIS-REPORT RAIN FOR SNOW...
$$

 *****  OTHER OBSERVATIONS SOUTHEAST NORTH DAKOTA *****

CITY           SKY/WX    TMP DP  RH WIND       PRES   REMARKS
COOPERSTOWN    CLOUDY    21  19  93 NE7       30.05S WCI  13
VALLEY CITY    CLOUDY    21  21 100 NE12      30.05S WCI   9
OAKES            N/A     21  21 100 N15       30.03S WCI   8
GWINNER          N/A     23  21  93 N15       30.02S WCI  10
SHEYENNE NWR     N/A     23  22  95 NE9       29.95S WCI  13
BUFFALO        NOT AVBL
WYNDMERE       NOT AVBL
 ***** THE ABOVE OBSERVATIONS ARE NON NWS ARE NOT QUALITY
       CONTROLLED AND MAY MIS-REPORT RAIN FOR SNOW...
$$

  *****  WEATHER ACROSS NORTHERN MINNESOTA  *****

CITY           SKY/WX    TMP DP  RH WIND       PRES   REMARKS
FLAG ISLAND    CLOUDY    18  12  79 N8        30.06F WCI   7
WARROAD        CLOUDY    19  16  86 N7        30.07S WCI  10
ROSEAU         CLOUDY    21  16  79 NE9       30.07S WCI  11
HALLOCK        CLOUDY    25  18  74 E3        30.09S
THF RVR FALLS  CLOUDY    21  17  84 N12       30.05S WCI   9
HALSTAD        NOT AVBL
FOSSTON        CLOUDY    19  18  93 N8        30.02S WCI   9
BAUDETTE       CLOUDY    19  14  81 N9        30.03F WCI   8
WASKISH        CLOUDY    19  18  93 N6        30.01F WCI  11
CROOKSTON      CLOUDY    23  19  86 N8        30.07S WCI  14
$$
  *****  WEATHER ACROSS CENTRAL AND WEST MINNESOTA  *****

CITY           SKY/WX    TMP DP  RH WIND       PRES   REMARKS
BEMIDJI        CLOUDY    22  18  86 N6        29.99S WCI  14
PARK RAPIDS    CLOUDY    23  17  78 NE13G25   29.95S WCI  11
WADENA         CLOUDY    21  18  86 N12G20    29.94F WCI   9
DETROIT LAKES  CLOUDY    25  21  86 NE9       29.98F WCI  15
MOORHEAD       CLOUDY    25  19  80 N10       30.03S WCI  15
FERGUS FALLS   CLOUDY    25  19  80 NE6       29.98S WCI  18
ELBOW LAKE     CLOUDY    24  20  83 NE14      29.97R WCI  12
MORRIS MN      CLOUDY    27  19  74 N18       29.94S WCI  13
STAPLES        CLOUDY    21  16  79 N13G20    29.93S WCI   9
WHEATON        CLOUDY    25  21  86 N14G20    30.01S WCI  13
$$
  *****  WEATHER ELSEWHERE ACROSS MINNESOTA  *****

CITY           SKY/WX    TMP DP  RH WIND       PRES   REMARKS
DULUTH         CLOUDY    21  15  78 N10       29.85S WCI  10
INTRNTL FALLS  CLOUDY    16  10  77 NE6       30.02F WCI   7
ELY            NOT AVBL
CLOQUET        CLOUDY    21  14  73 N13G18    29.86S WCI   9
BRAINERD       CLOUDY    26  18  71 N15       29.91S WCI  14
HIBBING        FAIR      18  13  80 N10       29.92S WCI   6
ALEXANDRIA     CLOUDY    24  19  81 N15       29.92S WCI  11
SAINT CLOUD    CLOUDY    26  21  81 N16G24    29.85R WCI  14
MINNEAPOLIS    LGT SNOW  27  26  96 N15G23    29.77R VSB 1   WCI  15
$$

  *****  WEATHER ACROSS SOUTH DAKOTA  *****

CITY           SKY/WX    TMP DP  RH WIND       PRES   REMARKS
SIOUX FALLS    CLOUDY    27  24  89 N21G37    29.89R WCI  13
BROOKINGS      CLOUDY    24  21  88 N24       29.91R WCI   8
WATERTOWN      CLOUDY    22  21  96 N18G26    29.93S WCI   7
HURON          CLOUDY    22  21  96 N20       30.00S WCI   7
SISSETON         N/A     24  21  88 N18       29.99S WCI  10
ABERDEEN       CLOUDY    22  21  96 N10       30.04R WCI  11
MITCHELL       CLOUDY    24  22  91 N20G29    30.00R WCI  10
PIERRE         CLOUDY    21  21 100 N8        30.04S FOG     WCI  11
MOBRIDGE       CLOUDY    24  21  88 N7        30.01F FOG     WCI  16
RAPID CITY     FAIR      28  18  66 NW15      30.01S WCI  16
$$

  *****  SOME WEATHER IN NEARBY STATES *****

CITY           SKY/WX    TMP DP  RH WIND       PRES   REMARKS
GLASGOW MT     FAIR      16  12  84 SW5       29.99S WCI   9
GREAT FALLS MT FAIR      31  17  56 SW10      30.05R WCI  22
CHEYENNE WY    FAIR      25  12  58 NE13G20   30.03S WCI  14
SCOTTSBLUFF NE FAIR      22  14  71 NW14      30.08R WCI   9
OMAHA NE       LGT SNOW  30  27  88 NW26G37   29.81R BLWGSNOWWCI  16
DES MOINES IA  FLURRIES  33  31  92 N17G32    29.58R WCI  22
DAVENPORT IA   FAIR      34  29  82 SW6       29.52F
CHICAGO IL     CLOUDY    41  36  82 W8        29.48F
EAU CLAIRE WI  LGT SNOW  27  26  96 N13G21    29.67R VSB 1   WCI  16
LA CROSSE WI   MIX PCPN  34  33  96 N9        29.59R FOG
$$

  *****  SOME NATIONAL WEATHER *****

CITY           SKY/WX    TMP DP  RH WIND       PRES   REMARKS
LA GUARDIA NY  FOG       37  35  92 NE10      30.10F VSB 1/8
RALEIGH NC     CLOUDY    58  54  86 S13       30.02F
ATLANTA GA     CLOUDY    61  61 100 S14       29.91F
NEW ORLEANS LA FAIR      60  44  55 NW9       30.02R
OKLAHOMA CITY  FAIR      43  16  33 NW17      30.04S
ALBUQUERQUE NM FAIR      35   9  33 N9        30.23R
SALT LAKE CITY MOCLDY    35  19  52 SE5       30.30R
LOS ANGELES CA FAIR      60  46  59 SW7       30.16S
BOISE ID       FAIR      33  29  85 S3        30.30R
SEATTLE WA     FAIR      42  37  82 SE7       30.27F
$$

*** WEATHER ACROSS MANITOBA...SASKATCHEWAN AND ONTARIO ***
                ***ONTARIO***

CITY           SKY/WX    TMP DP  RH WIND       PRES   REMARKS
GERALDTON      FLURRIES   0  -6  78 NE14      30.07S WCI -19
THUNDER BAY    CLOUDY    12   3  67 N9        29.97F WCI   0
SIOUX LOOKOUT  FLURRIES   7   1  78 NE3       30.08S
TORONTO        LGT RAIN  34  32  93 E9        29.71F FOG
BIG TROUT LK   NOT AVBL
PICKLE LAKE    NOT AVBL
DRYDEN         FLURRIES   9   5  85 NE8       30.05S WCI  -4
KENORA         FLURRIES  12   9  85 NE7       30.05F WCI   2
$$
                *** MANITOBA***

CITY           SKY/WX    TMP DP  RH WIND       PRES   REMARKS
BRANDON        CLOUDY    23  19  86 SE8       30.01F WCI  14
DAUPHIN        CLOUDY    23  21  93 SE7       30.00F WCI  15
ISLAND LAKE    CLEAR     -6  -9  84 E5        30.21F WCI -17
PILOT MOUND      N/A     19  18  93 SE9         N/A  WCI   9
THE PAS        FLURRIES   3  -2  78 E12       30.06F WCI -13
THOMPSON       PTCLDY   -13 -18  77 E6        30.27S WCI -27
WINNIPEG       CLOUDY    23  18  80 SE9       30.08F WCI  13
CHURCHILL      FLURRIES -11 -15  84 E3        30.51F
$$
                ***SASKATCHEWAN***

CITY           SKY/WX    TMP DP  RH WIND       PRES   REMARKS
ESTEVAN        CLOUDY    16  12  86 S2        29.93S
KINDERSLEY     CLEAR     19  18  93 W7        29.91R WCI  10
LLOYDMINSTER   CLOUDY    19  18  93 NW10      29.89R FOG     WCI   8
PRINCE ALBERT  FLURRIES  10   5  79 NE5       29.93R WCI   2
REGINA         CLEAR     21  18  86 SW9       29.87S WCI  11
YORKTON        PTCLDY    19  18  93 S12       29.88S WCI   7
N. BATTLEFORD  CLOUDY    21  18  86 W8        29.92S WCI  12
LA RONGE       LGT SNOW   1  -2  85 NE12      29.98F WC


USA.gov is the U.S. government's official web portal to all federal, state and local government web resources and services.